Sioux City, IA

8:30 PM CDT on March 26, 2017 (GMT -0500)
Sioux Gateway

Weather History for KSUX - October, 2013

Change the Weather History Date:

Friday, October 11, 2013

  Actual Average Record
Temperature  
Mean Temperature 66 °F 53 °F  
Max Temperature 81 °F 66 °F 91 °F (2015)
Min Temperature 50 °F 40 °F 19 °F (1987)
Degree Days  
Heating Degree Days 0 13  
Month to date heating degree days 48 120  
Since 1 July heating degree days 113 267  
Cooling Degree Days 1 0  
Month to date cooling degree days 7 8  
Year to date cooling degree days 960 869  
Growing Degree Days 16 (Base 50)    
Moisture  
Dew Point 51 °F    
Average Humidity 52    
Maximum Humidity 78    
Minimum Humidity 26    
Precipitation  
Precipitation T in 0.08 in 1.26 in (1912)
Month to date precipitation 0.99 0.93  
Year to date precipitation 22.56 24.43  
Snow  
Snow 0.00 in 0.00 in T in (2009)
Month to date snowfall 0.0 0.1  
Since 1 July snowfall 0.0 0.1  
Since 1 September snowfall 0.0 0.1  
Snow Depth 0.00 in    
Sea Level Pressure  
Sea Level Pressure 29.67 in    
Wind  
Wind Speed 17 mph (South)    
Max Wind Speed 33 mph    
Max Gust Speed 44 mph    
Visibility 10 miles    
Events Rain    
T = Trace of Precipitation, MM = Missing Value Source: NWS Daily Summary

Daily Weather History Graph

Daily Weather History Graph

Search for Another Location

Airport or City:

Trip Planner

Search our weather history database for the weather conditions in past years. The results will help you decide how hot, cold, wet, or windy it might be!

Date:

Astronomy

Oct. 11, 2013 Rise Set
Actual Time 7:34 AM CDT 6:49 PM CDT
Civil Twilight 7:05 AM CDT 7:17 PM CDT
Nautical Twilight 6:33 AM CDT 7:50 PM CDT
Astronomical Twilight 6:00 AM CDT 8:22 PM CDT
Moon 2:20 PM CDT (10/11) No Moon Set
Length of Visible Light 12h 11m
Length of Day
11h 15m
Waxing Crescent, 47% of the Moon is Illuminated
Oct 11
Waxing Crescent
Oct 11
First Quarter
Oct 18
Full
Oct 26
Last Quarter
Nov 3
New

Hourly Weather History & Observations

Time (CDT) Temp. Dew Point Humidity Pressure Visibility Wind Dir Wind Speed Gust Speed Precip Events Conditions
12:52 AM 64.9 °F 53.1 °F 65% 29.74 in 10.0 mi SSE 10.4 mph - N/A   Clear
1:52 AM 64.9 °F 53.1 °F 65% 29.74 in 10.0 mi SSE 12.7 mph - N/A   Clear
2:52 AM 63.0 °F 53.1 °F 70% 29.73 in 10.0 mi SE 10.4 mph - N/A   Clear
3:52 AM 63.0 °F 53.1 °F 70% 29.70 in 10.0 mi SSE 10.4 mph - N/A   Clear
4:52 AM 63.0 °F 54.0 °F 72% 29.69 in 10.0 mi SSE 13.8 mph - N/A   Clear
5:52 AM 63.0 °F 54.0 °F 72% 29.64 in 10.0 mi SSE 15.0 mph 25.3 mph N/A   Clear
6:52 AM 62.1 °F 54.0 °F 75% 29.62 in 10.0 mi SE 20.7 mph 24.2 mph N/A   Clear
7:52 AM 61.0 °F 55.0 °F 81% 29.62 in 10.0 mi SSE 16.1 mph 26.5 mph 0.00 in Rain Light Rain
8:52 AM 63.0 °F 55.0 °F 75% 29.63 in 10.0 mi SSE 19.6 mph 27.6 mph 0.00 in   Mostly Cloudy
9:52 AM 63.0 °F 55.9 °F 78% 29.63 in 10.0 mi SSE 19.6 mph 26.5 mph N/A   Overcast
10:52 AM 66.0 °F 57.0 °F 73% 29.61 in 10.0 mi SSE 16.1 mph 27.6 mph 0.00 in   Overcast
11:17 AM 68.0 °F 57.2 °F 68% 29.62 in 10.0 mi South 21.9 mph 29.9 mph N/A   Mostly Cloudy
11:52 AM 71.1 °F 57.9 °F 63% 29.59 in 10.0 mi South 24.2 mph 34.5 mph N/A   Mostly Cloudy
12:52 PM 73.0 °F 55.9 °F 55% 29.56 in 10.0 mi South 28.8 mph 36.8 mph N/A   Mostly Cloudy
12:59 PM 73.4 °F 57.2 °F 57% 29.57 in 10.0 mi South 26.5 mph 36.8 mph N/A   Clear
1:52 PM 77.0 °F 55.9 °F 48% 29.55 in 10.0 mi South 17.3 mph 38.0 mph N/A   Partly Cloudy
2:52 PM 80.1 °F 51.1 °F 36% 29.54 in 10.0 mi South 27.6 mph 42.6 mph N/A   Scattered Clouds
3:52 PM 80.1 °F 42.1 °F 26% 29.56 in 10.0 mi SW 23.0 mph 39.1 mph N/A   Clear
4:52 PM 75.9 °F 45.0 °F 33% 29.61 in 10.0 mi WSW 26.5 mph 35.7 mph N/A   Clear
5:52 PM 72.0 °F 46.0 °F 40% 29.65 in 10.0 mi WSW 19.6 mph 28.8 mph N/A   Partly Cloudy
6:52 PM 66.0 °F 46.0 °F 48% 29.69 in 10.0 mi WNW 19.6 mph 28.8 mph N/A   Mostly Cloudy
7:52 PM 60.1 °F 44.1 °F 55% 29.76 in 10.0 mi West 18.4 mph 25.3 mph N/A   Clear
8:52 PM 55.9 °F 43.0 °F 62% 29.81 in 10.0 mi West 10.4 mph 21.9 mph N/A   Clear
9:52 PM 53.1 °F 42.1 °F 66% 29.84 in 10.0 mi West 8.1 mph - N/A   Clear
10:52 PM 52.0 °F 42.1 °F 69% 29.85 in 10.0 mi West 9.2 mph - N/A   Clear
11:52 PM 50.0 °F 42.1 °F 74% 29.86 in 10.0 mi West 8.1 mph - N/A   Clear